Location: Austin
(30.3000°N, 97.7500°W)
Time: 01:59:50
(UTC-05:00)

Skynet4D Del rocket - Pass Details

Date: 15 May 2024
Orbit: 763 x 1290 km, 26.9° (Epoch: 29 May)

Event Time Altitude Azimuth Distance (km) Brightness Sun altitude
Rises 21:08:54 0° 250° (WSW) 3,648 7.6 -10.6°
Reaches altitude 10° 21:11:27 10° 247° (WSW) 2,777 6.9 -11.1°
Maximum altitude 21:18:11 60° 169° (S) 1,260 4.4 -12.3°
Enters shadow 21:25:17 12° 92° (E) 2,959 6.0 -13.6°
